GAOFEN 3-02 (49495 NORAD) Tracking and Keplerian Element Data

This shows tracking and keplerian element data for the satellite.

Feedback or suggestion? Click here.




ElementValue
Catalog49495
NameGAOFEN 3-02
Epoch Orbit192
Epoch Day340.28358051
Epoch Year2021
RAAN345.3414
Inclination98.4132
Eccentricity0.0001398
Argument of Perigee86.8706
Mean Anonmoly273.2664
Mean Motion14.42218043
Decay Rate1.4E-07
L11 49495U 21109A 21340.28358051 .00000014 00000+0 17312-4 0 9998
L22 49495 98.4132 345.3414 0001398 86.8706 273.2664 14.42218043 1921

Live tracking and technical data element details for GAOFEN 3-02 (NORAD 49495). GAOFEN 3-02 can be tracked NOW for your location showing map with azimuth and elevation plus other details from your city location.

Track the satellite on the map from your city or location and see movement details for azimuth, elevation, latitude, longitude, range, height, and movement on the map or in text.







IsCatalogInMostPopularTable: catalog: 49495, numindb: -1

Insert: records affected: 1


GetName: 49495 GAOFEN 3-02

Hit Count: inserted at: Wed, 08 Dec 2021 15:15:33 GMT